Regional Weather Roundup
Issued by NWS

Home | Current Version | Previous Version | Text Only | Print | Product List | Glossary Off
Versions: 1 2 3 4 5 6 7 8 9 10 11 12 13 14 15 16 17 18 19 20 21 22 23 24 25 26 27 28 29 30 31 32 33 34 35 36 37 38 39 40 41 42 43 44 45 46 47 48 49 50

000
ASUS43 KOAX 252010
RWRNE

WEATHER ROUNDUP FOR NEBRASKA
NATIONAL WEATHER SERVICE OMAHA NE
300 PM CDT MON MAY 25 2015

NOTES: SATELLITE DATA IS BEING USED TO AUGMENT CLOUD COVER ABOVE
       12000 FEET.
       "FAIR" INDICATES FEW OR NO CLOUDS BELOW 12,000 FEET WITH NO
       SIGNIFICANT WEATHER AND/OR OBSTRUCTIONS TO VISIBILITY.

  * THESE STATIONS DO NOT REPORT WEATHER SUCH AS RAIN...SNOW OR FOG.

NEZ001>004-019>022-054>056-252100-
NEBRASKA PANHANDLE

CITY           SKY/WX    TMP DP  RH WIND       PRES   REMARKS
SCOTTSBLUFF    LGT RAIN  55  53  93 W12       29.88S
ALLIANCE       LGT RAIN  54  51  90 N14       29.86R
CHADRON        CLOUDY    61  52  72 CALM      29.84S
KIMBALL          N/A    N/A N/A N/A MISG        N/A
SIDNEY         CLOUDY    56  49  77 NW21      29.89R
$$

NEZ057>060-069>072-079>082-252100-
SOUTHWEST NEBRASKA

CITY           SKY/WX    TMP DP  RH WIND       PRES   REMARKS
NORTH PLATTE   CLOUDY    67  53  61 W13       29.82R
IMPERIAL       PTSUNNY   63  48  58 W10       29.85R
LEXINGTON      MOSUNNY   72  58  60 S14       29.80F
MCCOOK         MOSUNNY   71  50  47 SW14      29.81F
OGALLALA       CLOUDY    61  52  73 W9        29.84R
$$

NEZ005>010-023>029-035>040-094-252100-
NORTH CENTRAL NEBRASKA

CITY           SKY/WX    TMP DP  RH WIND       PRES   REMARKS
VALENTINE      LGT RAIN  56  54  93 CALM      29.81R
AINSWORTH      RAIN      59  57  92 CALM      29.80R
BROKEN BOW     CLOUDY    69  53  56 S14       29.80R
O`NEILL        PTSUNNY   73  54  51 S13G21    29.77R
ORD            PTSUNNY   70  52  52 S12       29.78R
THEDFORD       CLOUDY    63  54  71 NW8       29.82S
$$

NEZ041-046>049-061>064-073>077-083>087-252100-
SOUTH CENTRAL NEBRASKA

CITY           SKY/WX    TMP DP  RH WIND       PRES   REMARKS
GRAND ISLAND   MOSUNNY   73  56  54 SW14      29.80F
AURORA         PTSUNNY   73  56  54 SW16G22   29.79F
HASTINGS       PTSUNNY   72  57  59 SW14G20   29.80F
HEBRON         PTSUNNY   74  59  59 S12       29.81R
HOLDREGE       MOSUNNY   72  54  52 W13       29.79F
KEARNEY *      PTSUNNY   72  55  56 SW15      29.80S
YORK           MOSUNNY   75  59  57 SW10G18   29.80S
$$

NEZ011>018-030>034-042>045-252100-
NORTHEAST NEBRASKA

CITY           SKY/WX    TMP DP  RH WIND       PRES   REMARKS
NORFOLK        MOSUNNY   77  55  46 SW15G22   29.77S
ALBION         MOSUNNY   75  53  46 SW17      29.79S
BLAIR          MOSUNNY   80  54  41 SW14G23   29.79S
COLUMBUS *     PTSUNNY   75  55  50 SW16G23   29.81F
FREMONT        MOSUNNY   79  55  43 S14       29.79F
TEKAMAH        MOSUNNY   82  55  39 S14G24    29.78S
WAYNE          MOSUNNY   76  56  50 S17G23    29.77S
$$

NEZ050>053-065>068-078-088>093-252100-
SOUTHEAST NEBRASKA

CITY           SKY/WX    TMP DP  RH WIND       PRES   REMARKS
LINCOLN        PTSUNNY   77  61  57 S13       29.79F
OMAHA EPPLEY   MOSUNNY   79  57  46 SW13G23   29.78F
BEATRICE       MOSUNNY   76  63  65 S14       29.81S
FALLS CITY     CLOUDY    75  64  68 S16G24    29.82F
NEBRASKA CITY  MOSUNNY   77  59  54 S20       29.81S
PLATTSMOUTH    PTSUNNY   77  59  53 S17       29.81S
$$

NEZ044-045-051>053-067-252100-
OMAHA AREA

CITY           SKY/WX    TMP DP  RH WIND       PRES   REMARKS
OMAHA EPPLEY   MOSUNNY   79  57  46 SW13G23   29.78F
BLAIR          MOSUNNY   80  54  41 SW14G23   29.79S
FREMONT        MOSUNNY   79  55  43 S14       29.79F
MILLARD        MOSUNNY   79  58  49 SW10G18   29.79S
OFFUTT AFB     MOSUNNY   79  60  53 S12G18    29.78F
PLATTSMOUTH    PTSUNNY   77  59  53 S17       29.81S
WAHOO          FAIR      78  57  48 S10G22    29.79F
$$


USA.gov is the U.S. government's official web portal to all federal, state and local government web resources and services.